[[{"header":{"parameterUnit":"m.s-1","parameterCategory":1,"la1":30.2991,"la2":30.254,"lo1":-89.0895,"lo2":-89.0444,"dy":0.0017,"dx":0.0017,"nx":28,"ny":28,"refTime":"2024-05-22T09:00:00:Z","depth":0,"parameterNumber":2,"parameterNumberName":"U-component_of_WINDS"},"data":[0,0,0,0,0,0,0,0,0,0,0,0,0,0,0,0,0,0,0,0,0,0,0,0,0,0,0,0,0,0,0,0,0,0,0,0,0,0,0,0,0,0,0,0,0,0,0,0,0,0,0,0,0,0,0,0,0,0,-2.721,-2.7211,0,-2.7259,-2.7259,-2.726,-2.7244,-2.7243,-2.7242,-2.7241,-2.7287,-2.7289,-2.7291,0,0,0,0,0,0,0,0,0,0,0,0,0,-2.71,-2.7102,-2.721,-2.7211,-2.7211,-2.7259,-2.7259,-2.726,-2.7244,-2.7243,-2.7242,-2.7241,-2.7286,-2.7289,-2.7291,0,0,0,0,0,0,0,0,0,0,0,0,0,-2.7148,-2.7103,-2.721,-2.7209,-2.721,-2.7259,-2.7259,-2.726,-2.7245,-2.7243,-2.7242,-2.724,-2.7285,-2.7288,-2.7292,-2.7343,0,0,-2.7302,-2.7303,0,0,0,0,0,0,0,0,-2.7145,-2.7152,-2.7209,-2.721,-2.721,-2.7244,-2.7237,-2.7288,-2.7245,-2.7231,-2.7241,-2.7239,-2.7273,-2.7278,-2.729,-2.7345,-2.7347,-2.7302,-2.7304,-2.7305,-2.7306,0,0,0,0,0,0,0,-2.7142,-2.715,-2.7229,-2.721,-2.721,-2.7205,-2.7211,-2.7247,-2.726,-2.7232,-2.7231,-2.7238,-2.7273,-2.7287,-2.7291,-2.7347,-2.7302,-2.7305,-2.7307,-2.7308,-2.7445,-2.7447,0,0,0,0,0,0,-2.7139,-2.7147,-2.7228,-2.7231,-2.7174,-2.7209,-2.7214,-2.7235,-2.726,-2.7262,-2.7239,-2.7237,-2.7282,-2.7287,-2.7292,-2.7353,-2.7305,-2.7308,-2.731,-2.7444,-2.7446,-2.7447,0,0,0,0,0,0,-2.7137,-2.7146,-2.7226,-2.7189,-2.7199,-2.7212,-2.7235,-2.7236,-2.725,-2.7265,-2.7267,-2.725,-2.7281,-2.7288,-2.733,-2.7354,-2.731,-2.7313,-2.7442,-2.7444,-2.7447,-2.7474,0,0,0,0,0,0,-2.7134,-2.7146,-2.7166,-2.719,-2.7201,-2.7264,-2.7237,-2.7238,-2.7256,-2.7253,-2.7276,-2.7278,-2.728,-2.7325,-2.7334,-2.7358,-2.7315,-2.7439,-2.7443,-2.7446,-2.7471,-2.7477,-2.7482,0,0,0,0,0,-2.713,-2.7171,-2.7167,-2.7177,-2.7227,-2.7265,-2.7271,-2.7274,-2.7258,-2.7278,-2.7287,-2.7277,-2.7351,-2.733,-2.7339,-2.7364,-2.7438,-2.7442,-2.7445,-2.7468,-2.7476,-2.7482,0,0,0,0,0,0,-2.7148,-2.7174,-2.717,-2.722,-2.7241,-2.7263,-2.7287,-2.7282,-2.7307,-2.7303,-2.7305,-2.731,-2.7353,-2.7363,-2.734,-2.7415,-2.7392,-2.7397,-2.7406,-2.7413,-2.7419,-2.7414,-2.7318,0,0,0,0,0,-2.7159,-2.7189,-2.721,-2.7252,-2.7263,-2.7274,-2.7291,-2.7291,-2.7312,-2.732,-2.7333,-2.7352,-2.738,-2.7397,-2.7423,-2.7473,-2.7477,-2.7495,-2.7501,-2.7506,-2.751,-2.7535,-2.7543,-2.746,-2.746,-2.746,0,0,-2.7179,-2.7197,-2.7216,-2.7256,-2.7272,-2.7302,-2.7281,-2.7314,-2.7336,-2.7325,-2.7365,-2.7376,-2.7397,-2.7444,-2.7464,-2.7453,-2.7534,-2.751,-2.7514,-2.7516,-2.754,-2.7548,-2.7555,-2.7463,-2.7462,-2.7462,0,0,-2.7232,-2.725,-2.7286,-2.7303,-2.7328,-2.7336,-2.7345,-2.7368,-2.7374,-2.7416,-2.7408,-2.7434,-2.7481,-2.7496,-2.751,-2.7571,-2.7562,-2.7579,-2.7608,-2.7633,-2.764,-2.7645,-2.7665,-2.7672,-2.7584,-2.7584,-2.7584,0,-2.7254,-2.73,-2.7305,-2.7339,-2.7356,-2.735,-2.7386,-2.7402,-2.7434,-2.7445,-2.7433,-2.7492,-2.7506,-2.7555,-2.757,-2.7583,-2.7591,-2.7575,-2.7639,-2.7644,-2.765,-2.7668,-2.7676,-2.7586,-2.7585,-2.7585,-2.7585,0,-2.7325,-2.7358,-2.7384,-2.7417,-2.7437,-2.7472,-2.7481,-2.7501,-2.75,-2.7509,-2.755,-2.7568,-2.7596,-2.7609,-2.7608,-2.7657,-2.765,-2.7638,-2.7615,-2.7659,-2.7677,-2.7684,-2.7588,-2.7588,-2.7587,-2.7587,0,0,-2.7389,-2.7425,-2.7434,-2.7448,-2.7476,-2.7501,-2.7535,-2.7565,-2.7581,-2.7604,-2.7631,-2.7672,-2.7662,-2.7678,-2.7679,-2.7702,-2.7746,-2.7687,-2.7688,-2.7696,-2.78,-2.7806,-2.7815,-2.7742,-2.7743,-2.7744,-2.7797,0,-2.7442,-2.7504,-2.751,-2.7564,-2.7594,-2.7588,-2.7618,-2.7638,-2.7647,-2.7672,-2.7681,-2.7709,-2.7695,-2.7704,-2.7726,-2.7736,-2.7766,-2.7733,-2.7765,-2.7766,-2.7757,-2.7824,-2.7831,-2.7881,-2.7804,-2.7805,-2.7806,0,-2.7512,-2.7538,-2.7596,-2.762,-2.7632,-2.7659,-2.7687,-2.7712,-2.7733,-2.7738,-2.7757,-2.7755,-2.7789,-2.7767,-2.7813,-2.7789,-2.7803,-2.781,-2.7812,-2.7813,-2.7787,-2.7825,-2.7897,-2.7903,-2.7817,-2.7817,-2.7816,0,-2.755,-2.76,-2.7641,-2.7654,-2.7683,-2.7701,-2.7714,-2.7735,-2.7752,-2.7776,-2.7787,-2.7815,-2.7829,-2.785,-2.7855,-2.7839,-2.79,-2.7879,-2.7903,-2.7903,-2.7914,-2.7913,-2.7987,-2.7928,-2.7928,-2.7927,-2.7927,0,-2.7608,-2.7643,-2.7658,-2.7683,-2.7722,-2.7728,-2.7766,-2.7778,-2.7796,-2.7822,-2.782,-2.7844,-2.785,-2.7875,-2.788,-2.7916,-2.7923,-2.7927,-2.7927,-2.7926,-2.7925,-2.7933,-2.7929,-2.7929,-2.7929,-2.7929,-2.7928,0,-2.7656,-2.7668,-2.7711,-2.7736,-2.7743,-2.7771,-2.7791,-2.7814,-2.7824,-2.7856,-2.7864,-2.7878,-2.7907,-2.7916,-2.7951,-2.7953,-2.7996,-2.7994,-2.7988,-2.7987,-2.8011,-2.8008,-2.8091,-2.8101,-2.8037,-2.8038,-2.8038,0,-2.7691,-2.7718,-2.7746,-2.7764,-2.7778,-2.7807,-2.7825,-2.7832,-2.7851,-2.7879,-2.7898,-2.7928,-2.7951,-2.7998,-2.801,-2.8037,-2.8034,-2.8062,-2.8038,-2.8036,-2.8032,-2.8029,-2.8031,-2.8065,-2.8066,-2.8066,-2.8067,0,-2.775,-2.7755,-2.7782,-2.7812,-2.7834,-2.7857,-2.7879,-2.7894,-2.7904,-2.7925,-2.7956,-2.7975,-2.8011,-2.8039,-2.8067,-2.8078,-2.8074,-2.8075,-2.8081,-2.8079,-2.8074,-2.8075,-2.7998,-2.8072,-2.8071,-2.8071,-2.8071,-2.8071,-2.7791,-2.7815,-2.7838,-2.7868,-2.7886,-2.7907,-2.793,-2.7943,-2.7969,-2.8,-2.8003,-2.8036,-2.8057,-2.8093,-2.8106,-2.8131,-2.8123,-2.8133,-2.8135,-2.8137,-2.8138,-2.8072,-2.8136,-2.8136,-2.8136,-2.8136,-2.8136,0,-2.7849,-2.7865,-2.7893,-2.7924,-2.7948,-2.7944,-2.7968,-2.7988,-2.8017,-2.8038,-2.8062,-2.8096,-2.8124,-2.814,-2.8167,-2.8184,-2.8182,-2.8191,-2.8188,-2.8191,-2.8145,-2.8135,-2.8191,-2.8191,-2.8191,-2.8191,-2.8191,-2.8191,-2.7882,-2.7921,-2.7929,-2.7976,-2.7991,-2.8024,-2.8038,-2.8057,-2.8074,-2.8113,-2.8137,-2.8147,-2.8165,-2.8194,-2.8219,-2.8223,-2.8232,-2.8241,-2.8243,-2.82,-2.8194,-2.8188,-2.8179,-2.8244,-2.8244,-2.8287,-2.8287,-2.8287]},{"header":{"parameterUnit":"m.s-1","parameterCategory":1,"la1":30.2991,"la2":30.254,"lo1":-89.0895,"lo2":-89.0444,"dy":0.0017,"dx":0.0017,"nx":28,"ny":28,"refTime":"2024-05-22T09:00:00:Z","depth":0,"parameterNumber":3,"parameterNumberName":"V-component_of_WINDS"},"data":[0,0,0,0,0,0,0,0,0,0,0,0,0,0,0,0,0,0,0,0,0,0,0,0,0,0,0,0,0,0,0,0,0,0,0,0,0,0,0,0,0,0,0,0,0,0,0,0,0,0,0,0,0,0,0,0,0,0,2.6574,2.6574,0,2.6578,2.6578,2.6578,2.6513,2.6512,2.651,2.6508,2.6512,2.6514,2.6516,0,0,0,0,0,0,0,0,0,0,0,0,0,2.6509,2.6511,2.6574,2.6574,2.6574,2.6578,2.6578,2.6578,2.6514,2.6512,2.6509,2.6507,2.6512,2.6514,2.6516,0,0,0,0,0,0,0,0,0,0,0,0,0,2.6528,2.6511,2.6574,2.6542,2.6539,2.6578,2.6578,2.6578,2.6514,2.6512,2.6509,2.6506,2.6511,2.6514,2.6516,2.6585,0,0,2.6524,2.6525,0,0,0,0,0,0,0,0,2.6527,2.653,2.6547,2.6544,2.6541,2.6542,2.6557,2.658,2.6515,2.6524,2.6508,2.6505,2.6524,2.6526,2.6532,2.6585,2.6585,2.6524,2.6526,2.6527,2.6528,0,0,0,0,0,0,0,2.6526,2.653,2.6575,2.6547,2.6544,2.6528,2.6527,2.6561,2.6539,2.6523,2.6518,2.6519,2.6522,2.653,2.6532,2.6585,2.6524,2.6527,2.6528,2.6529,2.6693,2.6696,0,0,0,0,0,0,2.6529,2.6529,2.6575,2.6575,2.6528,2.6531,2.6531,2.6545,2.6538,2.6535,2.6522,2.6516,2.6527,2.6529,2.6532,2.6611,2.6527,2.653,2.6531,2.6691,2.6694,2.6697,0,0,0,0,0,0,2.6528,2.6533,2.6575,2.6551,2.6555,2.6535,2.6551,2.6546,2.6554,2.6537,2.6533,2.6533,2.6525,2.6528,2.6572,2.661,2.6531,2.6533,2.6687,2.6692,2.6695,2.677,0,0,0,0,0,0,2.6526,2.6533,2.6559,2.6552,2.6557,2.6615,2.6554,2.6548,2.6558,2.6551,2.6547,2.6544,2.6523,2.6568,2.6575,2.6612,2.6535,2.6684,2.6689,2.6694,2.6764,2.6776,2.6787,0,0,0,0,0,2.6524,2.658,2.6561,2.6567,2.6589,2.6618,2.662,2.6595,2.6562,2.6587,2.6577,2.6544,2.6605,2.6573,2.658,2.6619,2.6681,2.6688,2.6694,2.6759,2.6774,2.6786,0,0,0,0,0,0,2.6593,2.6579,2.6557,2.6613,2.6617,2.6607,2.6638,2.6612,2.6625,2.6618,2.6586,2.6586,2.6634,2.6631,2.6596,2.6684,2.6637,2.6645,2.6685,2.6699,2.671,2.6709,2.6537,0,0,0,0,0,2.6615,2.6639,2.6626,2.6676,2.6679,2.6659,2.667,2.6651,2.6653,2.6655,2.6647,2.6651,2.6671,2.6685,2.6702,2.6764,2.6761,2.6794,2.6805,2.6814,2.6821,2.6852,2.6866,2.6718,2.6718,2.6717,0,0,2.666,2.6655,2.6673,2.669,2.6691,2.6717,2.6661,2.6691,2.671,2.6659,2.67,2.6695,2.6697,2.6749,2.6772,2.6748,2.6862,2.6822,2.683,2.6832,2.686,2.6874,2.6887,2.6722,2.6721,2.672,0,0,2.6755,2.6754,2.6796,2.6798,2.6799,2.6785,2.6795,2.6789,2.6784,2.6824,2.6786,2.6808,2.6844,2.6846,2.6852,2.6949,2.6919,2.6955,2.7014,2.7045,2.7057,2.7067,2.71,2.7113,2.6962,2.6963,2.6963,0,2.681,2.6848,2.682,2.6853,2.6861,2.6817,2.6859,2.6862,2.6869,2.6876,2.6849,2.6892,2.689,2.6942,2.6966,2.6973,2.6983,2.6955,2.7057,2.7067,2.7076,2.7108,2.7121,2.6967,2.6966,2.6966,2.6966,0,2.6916,2.6943,2.6976,2.6984,2.6997,2.7034,2.7011,2.7027,2.7006,2.6995,2.7036,2.7033,2.7048,2.7059,2.704,2.7109,2.7094,2.7063,2.7015,2.7095,2.7124,2.7136,2.6973,2.6972,2.697,2.6969,0,0,2.7054,2.7046,2.7059,2.7062,2.7061,2.7081,2.7115,2.7131,2.7144,2.7151,2.7179,2.721,2.7181,2.7188,2.7168,2.7195,2.7271,2.7161,2.716,2.718,2.7346,2.7368,2.7383,2.7251,2.7253,2.7255,2.7345,0,2.7146,2.7205,2.7181,2.7242,2.7265,2.7224,2.7254,2.7256,2.7247,2.7266,2.7255,2.7277,2.7237,2.7241,2.7267,2.7256,2.7303,2.7249,2.7276,2.7278,2.7276,2.7398,2.7422,2.7508,2.7356,2.7358,2.736,0,2.7261,2.7272,2.7335,2.7329,2.7338,2.7366,2.7377,2.7396,2.7398,2.7389,2.7397,2.7371,2.7404,2.7357,2.7402,2.7366,2.7375,2.7372,2.7375,2.7375,2.7323,2.7401,2.7534,2.7547,2.7378,2.7376,2.7375,0,2.7354,2.7385,2.7426,2.743,2.7424,2.7445,2.7443,2.7442,2.7453,2.7463,2.7469,2.7484,2.7491,2.7503,2.7481,2.7449,2.7529,2.748,2.7522,2.7523,2.754,2.7539,2.7676,2.7548,2.7548,2.7548,2.7548,0,2.7458,2.7499,2.7468,2.7494,2.7537,2.7509,2.7553,2.7547,2.7546,2.757,2.7535,2.7558,2.7528,2.7548,2.7531,2.7571,2.7575,2.7568,2.7563,2.7571,2.7571,2.7576,2.7569,2.7551,2.7551,2.755,2.7549,0,2.757,2.7551,2.7593,2.7584,2.7583,2.7615,2.7607,2.763,2.7618,2.7648,2.7654,2.7635,2.7656,2.7636,2.7657,2.7645,2.7698,2.7685,2.7697,2.7693,2.7736,2.7732,2.7879,2.7896,2.7759,2.776,2.7762,0,2.7637,2.7667,2.7661,2.7674,2.7674,2.7696,2.7706,2.768,2.7692,2.7696,2.7719,2.7737,2.775,2.7786,2.7775,2.779,2.7776,2.7827,2.7778,2.7785,2.7776,2.7774,2.7776,2.7836,2.7838,2.7839,2.784,0,2.7758,2.7748,2.7764,2.7777,2.779,2.78,2.7806,2.7819,2.7791,2.7807,2.7828,2.7839,2.7859,2.7878,2.7889,2.7888,2.786,2.7856,2.7866,2.7874,2.788,2.7876,2.7723,2.7852,2.7851,2.785,2.785,2.7849,2.7849,2.7873,2.7872,2.7892,2.7894,2.79,2.7921,2.7912,2.7929,2.7944,2.7927,2.7953,2.7954,2.7966,2.7968,2.7987,2.7966,2.7981,2.7985,2.7989,2.7995,2.7877,2.799,2.7989,2.7989,2.7989,2.7988,0,2.7968,2.7965,2.7983,2.7993,2.8008,2.798,2.7986,2.8,2.8023,2.8026,2.804,2.8064,2.8082,2.8072,2.8087,2.8105,2.8092,2.8109,2.8107,2.8107,2.8013,2.8002,2.8119,2.8119,2.8119,2.8119,2.8119,2.8119,2.8031,2.807,2.8059,2.8099,2.8096,2.8121,2.8126,2.8132,2.8134,2.8163,2.8177,2.817,2.8168,2.8182,2.8197,2.8194,2.82,2.8222,2.8214,2.8127,2.8114,2.8101,2.8091,2.8224,2.8224,2.8306,2.8307,2.8307]}]]